Location: Camerons Lookout
(40.9833°S, 175.9333°E)
Time: 01:40:46
(UTC+00:00)

Cosmos 2242 Rocket - Pass Details

Date: 14 January 2026
Orbit: 612 x 646 km, 82.5° (Epoch: 6 February)

Event Time Altitude Azimuth Distance (km) Brightness Sun altitude
Rises 08:18:32 0° 183° (S) 2,988 7.7 -5.5°
Reaches altitude 10° 08:20:52 10° 177° (S) 2,074 6.7 -5.8°
Maximum altitude 08:25:22 51° 101° (E) 830 4.0 -6.5°
Drops below altitude 10° 08:29:49 10° 25° (NNE) 2,053 5.7 -7.2°
Enters shadow 08:30:57 - 21° (NNE) 2,499 6.1 -7.4°
